User: anonymous   Login
Location: Gro�sch�nbrunn
(49.5760°N, 11.8868°E)
Time: 07:41:55
(UTC+00:00)
Language:

Cosmos 990 Rocket - Orbit

View from above orbital plane
View from above orbital plane
View from above satellite
View from above satellite

Ground track
Ground track

The orbit data is extracted from the following two-line orbital elements,

1 10677U 78019B   20329.77724545  .00000022  00000-0  15265-4 0  9990
2 10677  74.0363 139.5438 0016376 265.1591  94.7694 14.40161044243385
Epoch (UTC): 24 November 2020 18:39:14
Eccentricity: 0.0016376
inclination: 74.0363°
perigee height: 746 km
apogee height: 769 km
right ascension of ascending node: 139.5438°
argument of perigee: 265.1591°
revolutions per day: 14.40161044
mean anomaly at epoch: 94.7694°
orbit number at epoch: 24338

The dashed part of the orbit path shows where the satellite is in the earth's shadow,  

DLR